Glenwood, MN

4:56 PM CST on February 13, 2016 (GMT -0600)
Glenwood Municipal

Weather History for KGHW - September, 2014

Change the Weather History Date:

Wednesday, September 17, 2014

  Actual Average Record
Temperature  
Mean Temperature 60 °F -  
Max Temperature 73 °F 71 °F 94 °F (1955)
Min Temperature 46 °F 46 °F 36 °F (1959)
Degree Days  
Heating Degree Days 6    
Growing Degree Days 10 (Base 50)    
Moisture  
Dew Point 51 °F    
Average Humidity 77    
Maximum Humidity 100    
Minimum Humidity 47    
Precipitation  
Precipitation 0.00 in - - ()
Sea Level Pressure  
Sea Level Pressure 29.96 in    
Wind  
Wind Speed 3 mph (East)    
Max Wind Speed 8 mph    
Max Gust Speed -    
Visibility 10 miles    
Events      
Averages and records for this station are not official NWS values.
T = Trace of Precipitation, MM = Missing Value Source: NWS Daily Summary

Daily Weather History Graph

Daily Weather History Graph

Search for Another Location

Airport or City:

Trip Planner

Search our weather history database for the weather conditions in past years. The results will help you decide how hot, cold, wet, or windy it might be!

Date:

Astronomy

Sep. 17, 2014 Rise Set
Actual Time 7:02 AM CDT 7:28 PM CDT
Civil Twilight 6:32 AM CDT 7:58 PM CDT
Nautical Twilight 5:57 AM CDT 8:33 PM CDT
Astronomical Twilight 5:20 AM CDT 9:09 PM CDT
Moon 12:50 AM CDT (9/17) 3:51 PM CDT (9/17)
Length of Visible Light 13h 25m
Length of Day
12h 26m
Waning Crescent, 34% of the Moon is Illuminated
Sep 17
Waning Crescent
Sep 24
New
Oct 1
First Quarter
Oct 8
Full
Oct 15
Last Quarter

Hourly Weather History & Observations

Time (CDT) Temp. Windchill Dew Point Humidity Pressure Visibility Wind Dir Wind Speed Gust Speed Precip Events Conditions
12:13 AM 48.2 °F - 46.4 °F 93% 29.97 in 10.0 mi ESE 3.5 mph - N/A   Clear
12:33 AM 48.2 °F - 46.4 °F 93% 29.96 in 10.0 mi SE 3.5 mph - N/A   Scattered Clouds
12:53 AM 50.0 °F - 46.4 °F 87% 29.96 in 10.0 mi Calm Calm - N/A   Scattered Clouds
1:13 AM 50.0 °F - 46.4 °F 87% 29.96 in 10.0 mi SE 4.6 mph - N/A   Scattered Clouds
1:33 AM 48.2 °F - 46.4 °F 93% 29.95 in 10.0 mi SE 5.8 mph - N/A   Clear
1:53 AM 50.0 °F - 46.4 °F 87% 29.95 in 10.0 mi SE 5.8 mph - N/A   Clear
2:13 AM 48.2 °F - 46.4 °F 93% 29.95 in 10.0 mi SE 6.9 mph - N/A   Clear
2:33 AM 48.2 °F - 46.4 °F 93% 29.94 in 10.0 mi SSE 4.6 mph - N/A   Clear
2:53 AM 50.0 °F - 46.4 °F 87% 29.95 in 10.0 mi Calm Calm - N/A   Clear
3:14 AM 48.2 °F - 46.4 °F 93% 29.94 in 10.0 mi SSE 4.6 mph - N/A   Clear
3:33 AM 48.2 °F - 46.4 °F 93% 29.94 in 10.0 mi SSE 4.6 mph - N/A   Clear
3:53 AM 46.4 °F 44.3 °F 46.4 °F 100% 29.93 in 10.0 mi SSE 4.6 mph - N/A   Clear
4:13 AM 46.4 °F 44.3 °F 46.4 °F 100% 29.92 in 10.0 mi SSE 4.6 mph - N/A   Clear
4:33 AM 46.4 °F 44.3 °F 46.4 °F 100% 29.93 in 10.0 mi South 4.6 mph - N/A   Clear
4:54 AM 46.4 °F 44.3 °F 46.4 °F 100% 29.93 in 10.0 mi South 4.6 mph - N/A   Clear
5:13 AM 46.4 °F 43.5 °F 44.6 °F 93% 29.93 in 10.0 mi South 5.8 mph - N/A   Clear
5:33 AM 46.4 °F 44.3 °F 46.4 °F 100% 29.93 in 10.0 mi South 4.6 mph - N/A   Clear
5:53 AM 48.2 °F - 46.4 °F 93% 29.92 in 10.0 mi South 3.5 mph - N/A   Clear
6:13 AM 46.4 °F 45.2 °F 46.4 °F 100% 29.92 in 10.0 mi SSW 3.5 mph - N/A   Clear
6:33 AM 48.2 °F - 46.4 °F 93% 29.92 in 10.0 mi SSW 4.6 mph - N/A   Clear
6:53 AM 48.2 °F - 46.4 °F 93% 29.93 in 10.0 mi Calm Calm - N/A   Clear
7:13 AM 48.2 °F - 46.4 °F 93% 29.93 in 10.0 mi Calm Calm - N/A   Clear
7:33 AM 48.2 °F - 46.4 °F 93% 29.93 in 10.0 mi Calm Calm - N/A   Clear
7:53 AM 50.0 °F - 48.2 °F 94% 29.94 in 10.0 mi Calm Calm - N/A   Clear
8:13 AM 51.8 °F - 50.0 °F 94% 29.94 in 10.0 mi Calm Calm - N/A   Clear
8:33 AM 53.6 °F - 51.8 °F 94% 29.94 in 10.0 mi Calm Calm - N/A   Clear
8:53 AM 55.4 °F - 51.8 °F 88% 29.94 in 10.0 mi SW 3.5 mph - N/A   Clear
9:14 AM 57.2 °F - 53.6 °F 88% 29.94 in 10.0 mi SW 3.5 mph - N/A   Clear
9:33 AM 59.0 °F - 51.8 °F 77% 29.94 in 10.0 mi Calm Calm - N/A   Clear
9:53 AM 60.8 °F - 51.8 °F 72% 29.95 in 10.0 mi Calm Calm - N/A   Clear
10:13 AM 62.6 °F - 53.6 °F 72% 29.95 in 10.0 mi NNW 4.6 mph - N/A   Clear
10:33 AM 64.4 °F - 55.4 °F 73% 29.95 in 10.0 mi North 3.5 mph - N/A   Clear
10:53 AM 66.2 °F - 55.4 °F 68% 29.95 in 10.0 mi NE 5.8 mph - N/A   Clear
11:13 AM 66.2 °F - 55.4 °F 68% 29.96 in 10.0 mi North 3.5 mph - N/A   Clear
11:33 AM 66.2 °F - 55.4 °F 68% 29.96 in 10.0 mi Calm Calm - N/A   Clear
11:53 AM 69.8 °F - 55.4 °F 60% 29.95 in 10.0 mi NNE 3.5 mph - N/A   Clear
12:13 PM 69.8 °F - 55.4 °F 60% 29.95 in 10.0 mi Calm Calm - N/A   Clear
12:33 PM 71.6 °F - 55.4 °F 57% 29.95 in 10.0 mi East 3.5 mph - N/A   Clear
1:13 PM 69.8 °F - 55.4 °F 60% 29.96 in 10.0 mi NNE 4.6 mph - N/A   Scattered Clouds
1:33 PM 69.8 °F - 51.8 °F 53% 29.96 in 10.0 mi Calm Calm - N/A   Clear
1:53 PM 73.4 °F - 51.8 °F 47% 29.96 in 10.0 mi ESE 3.5 mph - N/A   Scattered Clouds
2:13 PM 73.4 °F - 51.8 °F 47% 29.95 in 10.0 mi ENE 4.6 mph - N/A   Clear
2:34 PM 69.8 °F - 53.6 °F 56% 29.95 in 10.0 mi North 4.6 mph - N/A   Clear
2:53 PM 71.6 °F - 51.8 °F 50% 29.95 in 10.0 mi Calm Calm - N/A   Clear
3:13 PM 73.4 °F - 51.8 °F 47% 29.96 in 10.0 mi NNW 4.6 mph - N/A   Clear
3:34 PM 71.6 °F - 53.6 °F 53% 29.96 in 10.0 mi NNE 8.1 mph - N/A   Clear
3:53 PM 71.6 °F - 53.6 °F 53% 29.96 in 10.0 mi NNE 8.1 mph - N/A   Clear
4:13 PM 73.4 °F - 53.6 °F 50% 29.96 in 10.0 mi NE 5.8 mph - N/A   Clear
4:33 PM 73.4 °F - 53.6 °F 50% 29.96 in 10.0 mi NNE 4.6 mph - N/A   Clear
4:53 PM 69.8 °F - 53.6 °F 56% 29.96 in 10.0 mi NE 4.6 mph - N/A   Scattered Clouds
5:13 PM 73.4 °F - 53.6 °F 50% 29.97 in 10.0 mi ENE 4.6 mph - N/A   Scattered Clouds
5:33 PM 73.4 °F - 51.8 °F 47% 29.97 in 10.0 mi Calm Calm - N/A   Clear
5:53 PM 73.4 °F - 51.8 °F 47% 29.97 in 10.0 mi ENE 4.6 mph - N/A   Scattered Clouds
6:13 PM 71.6 °F - 51.8 °F 50% 29.97 in 10.0 mi Calm Calm - N/A   Scattered Clouds
6:33 PM 71.6 °F - 53.6 °F 53% 29.97 in 10.0 mi Calm Calm - N/A   Clear
6:53 PM 68.0 °F - 53.6 °F 60% 29.98 in 10.0 mi ENE 3.5 mph - N/A   Clear
7:13 PM 66.2 °F - 53.6 °F 64% 29.98 in 10.0 mi NE 3.5 mph - N/A   Clear
7:33 PM 62.6 °F - 53.6 °F 72% 29.98 in 10.0 mi ENE 4.6 mph - N/A   Clear
7:53 PM 62.6 °F - 53.6 °F 72% 29.99 in 10.0 mi ENE 4.6 mph - N/A   Clear
8:13 PM 60.8 °F - 53.6 °F 77% 29.99 in 10.0 mi ENE 5.8 mph - N/A   Clear
8:33 PM 60.8 °F - 53.6 °F 77% 30.00 in 10.0 mi ENE 5.8 mph - N/A   Clear
8:53 PM 57.2 °F - 53.6 °F 88% 30.00 in 10.0 mi ENE 4.6 mph - N/A   Clear
9:13 PM 57.2 °F - 53.6 °F 88% 30.01 in 10.0 mi ENE 3.5 mph - N/A   Clear
9:33 PM 57.2 °F - 53.6 °F 88% 30.01 in 10.0 mi ENE 3.5 mph - N/A   Clear
9:54 PM 57.2 °F - 53.6 °F 88% 30.01 in 10.0 mi East 3.5 mph - N/A   Clear
10:13 PM 57.2 °F - 53.6 °F 88% 30.02 in 10.0 mi East 3.5 mph - N/A   Clear
10:33 PM 57.2 °F - 51.8 °F 82% 30.02 in 10.0 mi East 3.5 mph - N/A   Clear
10:53 PM 55.4 °F - 51.8 °F 88% 30.02 in 10.0 mi ENE 4.6 mph - N/A   Clear
11:13 PM 55.4 °F - 51.8 °F 88% 30.02 in 10.0 mi ENE 4.6 mph - N/A   Clear
11:34 PM 55.4 °F - 51.8 °F 88% 30.02 in 10.0 mi East 3.5 mph - N/A   Clear
11:53 PM 55.4 °F - 51.8 °F 88% 30.02 in 10.0 mi Calm Calm - N/A   Clear